Regional Weather Roundup
Issued by NWS

Home | Current Version | Previous Version | Graphics & Text | Print | Product List | Glossary On
Versions: 1 2 3 4 5 6 7 8 9 10 11 12 13 14 15 16 17 18 19 20 21 22 23 24 25 26 27 28 29 30 31 32 33 34 35 36 37 38 39 40 41 42 43 44 45 46 47 48 49 50
300
ASUS43 KIND 222300
RWRIN

WEATHER ROUNDUP FOR INDIANA
NATIONAL WEATHER SERVICE INDIANAPOLIS IN
700 PM EDT THU JUN 22 2017

NOTE: "FAIR" INDICATES FEW OR NO CLOUDS BELOW 12,000 FEET WITH NO
SIGNIFICANT WEATHER AND/OR OBSTRUCTIONS TO VISIBILITY.

* - STATION DOES NOT REPORT WEATHER SUCH AS PRECIPITATION OR FOG.

+ - STATION NOT QUALITY CONTROLLED BY THE NATIONAL WEATHER SERVICE.
    USE DATA WITH CAUTION...ESPECIALLY DEWPOINT AND RELATIVE
    HUMIDITY OBSERVATIONS.

INZ001>003-010>013-019-020-230000-
NORTHWEST INDIANA

CITY           SKY/WX    TMP DP  RH WIND       PRES   REMARKS
GARY /AIRPORT/ PTSUNNY   84  70  61 S12G23    29.75F
KNOX *+        PTSUNNY   79  61  53 S10G18    29.78F
MICHIGAN CITY+ LGT RAIN  77  70  78 S9G23     29.77F
MONTICELLO +   CLOUDY    81  69  67 S17G23    29.80F
RENSSELAER +   CLOUDY    81  68  65 S20G28    29.80F

$$

LMZ046-743>745-230000-
SOUTHERN LAKE MICHIGAN

STATION/POSITION TIME  TEMP    WIND        PRES    WAVE
                       AIR SEA DIR/SP/G            HT
                 (UTC) (F)     (DEG/KT/KT) (MB)    (FT)
BURNS HARBOR     2240   81     200/ 17/ 27 1007.8F
MICHIGAN CITY    2230   82     190/ 16/ 19   N/A
5NW MICH CITY    2250   77 68  200/ 14/ 21   N/A     2

$$

INZ004-005-014>016-021>024-230000-
NORTH CENTRAL INDIANA

CITY           SKY/WX    TMP DP  RH WIND       PRES   REMARKS
ELKHART        RAIN      82  70  65 S17G29    29.78F
GOSHEN         PTSUNNY   83  66  56 SW18G31   29.79F
SOUTH BEND     LGT RAIN  80  70  71 S15G24    29.78F

$$

INZ006>009-017-018-025>027-230000-
NORTHEAST INDIANA

CITY           SKY/WX    TMP DP  RH WIND       PRES   REMARKS
FORT WAYNE     PTSUNNY   83  67  58 S18       29.83F
KENDALLVILLE + SUNNY     84  68  57 SW20G25   29.80F

$$

INZ028-029-035-036-043>045-051>053-230000-
WEST CENTRAL INDIANA

CITY           SKY/WX    TMP DP  RH WIND       PRES   REMARKS
LAFAYETTE      PTSUNNY   80  70  71 S8G21     29.81F
TERRE HAUTE    CLOUDY    74  70  87 SE10      29.84F

$$

INZ030>032-037>040-046>048-054>057-064-065-230000-
CENTRAL INDIANA

CITY           SKY/WX    TMP DP  RH WIND       PRES   REMARKS
COLUMBUS       CLOUDY    73  68  83 S9        29.89F
GREENWOOD *+   CLOUDY    76  67  74 S14       29.89F
INDIANAPOLIS   CLOUDY    75  69  81 S15       29.87F
-EAGLE CREEK   CLOUDY    77  68  73 S9        29.86F
KOKOMO +       PTSUNNY   81  70  69 S23       29.84F
MT COMFORT *+  CLOUDY    77  68  73 S14G22    29.89F
SHELBYVILLE    CLOUDY    78  68  71 S12       29.88F

$$

INZ033-034-041-042-049-050-058-059-230000-
EAST CENTRAL INDIANA

CITY           SKY/WX    TMP DP  RH WIND       PRES   REMARKS
MUNCIE         CLOUDY    79  68  69 S16       29.87F
RICHMOND +     CLOUDY    73  68  83 S17       29.93S

$$

INZ060-061-067>069-081>083-085>088-230000-
SOUTHWEST INDIANA

CITY           SKY/WX    TMP DP  RH WIND       PRES   REMARKS
EVANSVILLE     CLOUDY    74  71  91 SE7       29.84F
HUNTINGBURG *+ LGT RAIN  73  71  93 SE12      29.86F

$$

INZ062-063-066-070>080-084-089>092-230000-
SOUTH CENTRAL AND SOUTHEAST INDIANA

CITY           SKY/WX    TMP DP  RH WIND       PRES   REMARKS
BLOOMINGTON    CLOUDY    73  68  84 S12       29.87F
SEYMOUR +      RAIN      73  72  94 SE6       29.89F

$$





USA.gov is the U.S. government's official web portal to all federal, state and local government web resources and services.